Home   Weather   Verona   Past weeks

Flag for Italy Past Weather in Verona, Italy — Yesterday and Last 2 Weeks

Now
52 °F

Passing clouds.


Feels Like: 51 °F
Forecast: 42 / 63 °F
Wind: 3 mph from Southwest

Location: Verona / Villafranca

Current Time: Apr 28, 2017 at 3:01:43 am

Latest Report: Apr 28, 2017 at 2:20 am


Visibility: 5 mi

Pressure: 29.65 "Hg

Humidity: 94%

Dew Point: 50 °F

Location of VeronaLocation

Past Weather in Verona — Graph

°F

Verona Temperature Yesterday

Maximum temperature yesterday: 66 °F (at 12:50 pm)
Minimum temperature yesterday: 54 °F (at 4:50 am)
Average temperature yesterday: 58 °F

High & Low Weather Summary for the Past Weeks

 TemperatureHumidityPressure
High75 °F (Apr 13, 6:50 pm)100% (Apr 25, 4:50 am)30.42 "Hg (Apr 25, 4:50 am)
Low37 °F (Apr 19, 5:50 am)11% (Apr 19, 2:50 pm)29.65 "Hg (Apr 27, 7:20 pm)
Average57 °F63%29.98 "Hg
* Reported Apr 13 1:20 am — Apr 28 1:50 am, Verona, Weather by CustomWeather, © 2017

Note: Actual official high and low records may vary slightly from our data, if they occured in-between our weather recording intervals... More about our weather records

Advertising

Verona Weather History for the Previous 24 Hours

Scroll right to see more
 ConditionsComfort  
Time TempWeatherWind HumidityBarometerVisibility
1:50 am
Fri, Apr 28
54 °FPassing clouds.3 mph94%29.65 "Hg5 mi
1:20 am55 °FPassing clouds.5 mph94%29.65 "Hg5 mi
12:50 am55 °FPassing clouds.2 mph94%29.65 "Hg6 mi
12:20 am55 °FPassing clouds.2 mph94%29.65 "HgN/A
11:50 pm
Thu, Apr 27
55 °FPassing clouds.3 mph94%29.65 "HgN/A
11:20 pm55 °FPassing clouds.5 mph94%29.65 "HgN/A
10:50 pm55 °FPartly cloudy.1 mph100%29.65 "HgN/A
10:20 pm55 °FPartly cloudy.2 mph100%29.65 "HgN/A
9:50 pm57 °FPassing clouds.6 mph94%29.65 "HgN/A
9:20 pm57 °FLight rain. Partly cloudy.6 mph94%29.65 "HgN/A
8:50 pm57 °FRain. Partly cloudy.3 mph94%29.68 "HgN/A
8:20 pm57 °FRain. Partly cloudy.1 mph94%29.65 "HgN/A
7:50 pm59 °FLight rain. Broken clouds.2 mph88%29.65 "HgN/A
7:20 pm57 °FLight rain. Broken clouds.5 mph94%29.65 "HgN/A
6:50 pm59 °FLight rain. Broken clouds.3 mph88%29.68 "HgN/A
6:20 pm59 °FLight rain. Broken clouds.3 mph88%29.68 "HgN/A
5:50 pm59 °FLight rain. Broken clouds.5 mph88%29.68 "HgN/A
5:20 pm59 °FLight rain. Broken clouds.7 mph88%29.71 "Hg5 mi
4:50 pm61 °FLight rain. Broken clouds.8 mph83%29.71 "Hg4 mi
4:20 pm61 °FBroken clouds.6 mph83%29.71 "Hg4 mi
3:20 pm59 °FLight rain. Broken clouds.7 mph94%29.74 "Hg4 mi
2:20 pm64 °FPartly sunny.3 mph64%29.74 "HgN/A
1:50 pm64 °FPartly sunny.5 mph68%29.74 "HgN/A
1:20 pm64 °FBroken clouds.5 mph68%29.74 "HgN/A
12:50 pm66 °FScattered clouds.3 mph64%29.77 "HgN/A
12:20 pm63 °FScattered clouds.3 mph77%29.77 "Hg5 mi
11:50 am63 °FScattered clouds.2 mph83%29.77 "Hg5 mi
11:20 am61 °FPartly sunny.2 mph83%29.77 "Hg5 mi
10:50 am61 °FScattered clouds.2 mph83%29.77 "Hg5 mi
10:20 am59 °FPartly sunny.3 mph88%29.77 "Hg4 mi
9:50 am59 °FBroken clouds.5 mph88%29.77 "Hg4 mi
9:20 am59 °FScattered clouds.3 mph88%29.74 "Hg4 mi
8:50 am59 °FBroken clouds.2 mph88%29.74 "Hg4 mi
8:20 am57 °FPartly sunny.2 mph94%29.74 "Hg4 mi
7:50 am57 °FPartly sunny.3 mph94%29.74 "Hg4 mi
7:20 am55 °FPartly sunny.2 mph94%29.74 "Hg4 mi
6:50 am55 °FPartly sunny.1 mph94%29.71 "Hg5 mi
6:20 am54 °FBroken clouds.3 mph100%29.71 "Hg6 mi
5:50 am55 °FPartly cloudy.2 mph94%29.71 "HgN/A
5:20 am54 °FPassing clouds.2 mph100%29.71 "HgN/A
4:50 am54 °FPassing clouds.104 mph100%29.71 "HgN/A
4:20 am55 °FPassing clouds.1 mph94%29.71 "HgN/A
3:20 am55 °FPassing clouds.2 mph94%29.71 "HgN/A
Weather by CustomWeather, © 2017

See weather overviewHow to use our weather pages